CW4320 Penacastillo ES current weather conditions

sailwx.info

Wind from 062 at 7 knots

Air temperature 23.9° C
Dewpoint 19.0° C

Last reported at 2019-Aug-21 15:01 UTC.
Time now 2019-Aug-21 15:31 UTC

Location: N 43°27' W 003°53'.
View on Google Maps.

See reports from other nearby stations

  
Tides and Currents Weather Stations Pressure Air Temp Water Temp Dewpoint Dewpoint Depression Visibility Wind Speed Wind Dir Waves Ship Positions
date/time (UTC)wind fromknots sea level pressurealtimeterstation pressurevisibilityair tempwater tempwave heightnotes
2019-Aug-21 15:06 063 7 23.9
2019-Aug-21 15:01 062 7 23.9
2019-Aug-21 14:56 039 8 23.9
2019-Aug-21 14:51 038 9 23.3
2019-Aug-21 14:47 013 9 23.3
2019-Aug-21 14:41 037 10 23.9
2019-Aug-21 14:36 032 9 23.9
2019-Aug-21 14:32 005 9 23.9
2019-Aug-21 14:26 030 9 23.9
2019-Aug-21 14:21 027 11 23.3
2019-Aug-21 14:17 038 10 23.3
2019-Aug-21 14:12 043 9 23.9
2019-Aug-21 14:06 034 9 23.9
2019-Aug-21 14:02 020 10 23.9
2019-Aug-21 13:57 058 10 23.9
2019-Aug-21 13:51 029 8 23.9
2019-Aug-21 13:46 025 9 24.4
2019-Aug-21 13:41 025 10 23.9
2019-Aug-21 13:36 039 10 23.9
2019-Aug-21 13:32 053 11 23.9
2019-Aug-21 13:26 058 11 23.9
2019-Aug-21 13:21 041 11 23.9
2019-Aug-21 13:16 036 12 23.3
2019-Aug-21 13:11 063 12 23.3
2019-Aug-21 13:06 037 11 23.3
2019-Aug-21 13:01 043 11 23.9
2019-Aug-21 12:56 025 11 23.9
2019-Aug-21 12:51 058 13 23.3
2019-Aug-21 12:46 049 12 23.3
2019-Aug-21 12:42 015 12 23.3
2019-Aug-21 12:36 053 12 23.3
2019-Aug-21 12:31 041 12 23.9
2019-Aug-21 12:26 044 11 23.3
2019-Aug-21 12:21 035 11 23.9
2019-Aug-21 12:16 030 12 23.3
2019-Aug-21 12:12 044 11 23.3
2019-Aug-21 12:06 053 11 23.3
2019-Aug-21 12:01 060 11 23.3
2019-Aug-21 11:56 049 11 23.3
2019-Aug-21 11:51 048 11 23.3
2019-Aug-21 11:46 038 10 23.3
2019-Aug-21 11:41 044 11 23.3
2019-Aug-21 11:36 035 10 23.3
2019-Aug-21 11:31 050 9 23.3
2019-Aug-21 11:26 030 9 23.3
2019-Aug-21 11:21 048 9 22.8
2019-Aug-21 11:16 033 9 22.8
2019-Aug-21 11:12 041 9 22.8
2019-Aug-21 11:06 025 8 23.3
2019-Aug-21 11:02 034 8 23.3
2019-Aug-21 10:56 054 8 23.3
2019-Aug-21 10:51 065 8 23.3
2019-Aug-21 10:46 059 8 23.3
2019-Aug-21 10:41 069 8 23.3
2019-Aug-21 10:36 017 8 23.3
2019-Aug-21 10:31 054 9 22.8
2019-Aug-21 10:26 062 8 22.2
2019-Aug-21 10:21 052 7 gusting 12 22.2
2019-Aug-21 10:16 029 9 gusting 12 22.2
2019-Aug-21 10:12 047 7 gusting 12 22.2
2019-Aug-21 10:06 041 7 gusting 13 22.2
2019-Aug-21 10:01 030 6 gusting 13 22.2
2019-Aug-21 09:56 025 8 gusting 13 22.8
2019-Aug-21 09:51 063 7 gusting 13 23.3
2019-Aug-21 09:46 049 6 gusting 12 23.3
2019-Aug-21 09:41 046 5 gusting 12 23.3
2019-Aug-21 09:36 060 8 gusting 12 23.3
2019-Aug-21 09:31 072 4 gusting 10 23.3
2019-Aug-21 09:26 070 4 gusting 12 22.8
2019-Aug-21 09:21 052 7 gusting 12 22.8
2019-Aug-21 09:17 064 6 gusting 13 22.2
2019-Aug-21 09:12 065 9 gusting 13 22.2
2019-Aug-21 09:06 043 8 gusting 12 22.2
2019-Aug-21 09:01 052 8 gusting 11 21.7
2019-Aug-21 08:56 046 6 gusting 10 22.2
2019-Aug-21 08:51 067 7 gusting 10 21.7
2019-Aug-21 08:46 071 8 gusting 11 21.7
2019-Aug-21 08:41 061 7 gusting 11 21.1
2019-Aug-21 08:36 052 6 gusting 10 21.7
2019-Aug-21 08:31 057 7 gusting 11 21.7
2019-Aug-21 08:26 054 7 gusting 12 21.7
2019-Aug-21 08:21 066 6 gusting 12 21.1
2019-Aug-21 08:16 066 7 gusting 10 21.1
2019-Aug-21 08:12 058 6 gusting 8 21.1
2019-Aug-21 08:06 060 4 gusting 8 21.7
2019-Aug-21 08:01 082 2 gusting 3 21.7
2019-Aug-21 07:56 082 1 gusting 3 21.1
2019-Aug-21 07:51 080 1 gusting 3 21.1
2019-Aug-21 07:46 083 1 gusting 2 21.1
2019-Aug-21 07:41 084 0 gusting 3 20.6
2019-Aug-21 07:36 084 2 gusting 3 20.6
2019-Aug-21 07:31 084 0 gusting 3 20.0
2019-Aug-21 07:26 084 0 gusting 2 20.0
2019-Aug-21 07:21 085 1 gusting 2 19.4
2019-Aug-21 07:16 084 0 gusting 2 18.9
2019-Aug-21 07:12 084 18.9
2019-Aug-21 07:06 085 0 gusting 1 18.3
2019-Aug-21 07:01 084 17.8
2019-Aug-21 06:56 085 1 17.8
2019-Aug-21 06:51 085 1 17.8
2019-Aug-21 06:46 084 1 gusting 3 17.2
2019-Aug-21 06:41 085 1 gusting 3 17.2
2019-Aug-21 06:36 085 17.2
2019-Aug-21 06:31 086 1 gusting 3 16.7
2019-Aug-21 06:27 089 1 gusting 3 16.7
2019-Aug-21 06:21 084 16.7
2019-Aug-21 06:16 086 16.7
2019-Aug-21 06:12 085 16.7
2019-Aug-21 06:06 086 16.7
2019-Aug-21 06:01 085 16.7
2019-Aug-21 05:56 086 0 16.7
2019-Aug-21 05:51 086 2 16.7
2019-Aug-21 05:46 086 1 16.7
2019-Aug-21 05:41 085 0 16.7
2019-Aug-21 05:36 086 0 16.7
2019-Aug-21 05:32 086 16.7
2019-Aug-21 05:26 086 16.7
2019-Aug-21 05:21 086 16.7
2019-Aug-21 05:17 087 16.7
2019-Aug-21 05:12 085 16.7
2019-Aug-21 05:06 086 16.7
2019-Aug-21 05:02 086 0 16.7
2019-Aug-21 04:57 086 1 16.7
2019-Aug-21 04:51 084 0 16.7
2019-Aug-21 04:46 086 0 16.7
2019-Aug-21 04:41 085 1 16.7
2019-Aug-21 04:36 086 1 16.7
2019-Aug-21 04:31 086 2 16.7
2019-Aug-21 04:26 085 1 17.2
2019-Aug-21 04:21 086 0 17.2
2019-Aug-21 04:16 088 17.2
2019-Aug-21 04:12 086 17.2
2019-Aug-21 04:06 087 17.2
2019-Aug-21 04:01 089 17.2
2019-Aug-21 03:56 085 17.2
2019-Aug-21 03:51 086 17.2
2019-Aug-21 03:46 086 17.2
2019-Aug-21 03:41 085 17.2
2019-Aug-21 03:36 086 17.2
2019-Aug-21 03:31 087 17.2
2019-Aug-21 03:26 086 0 17.2
2019-Aug-21 03:21 087 0 17.2
2019-Aug-21 03:16 087 0 17.2
2019-Aug-21 03:11 086 1 17.8
2019-Aug-21 03:06 085 1 17.8
2019-Aug-21 03:01 088 2 17.8
2019-Aug-21 02:57 087 1 17.8
2019-Aug-21 02:51 086 1 17.8
2019-Aug-21 02:46 086 0 17.8
2019-Aug-21 02:41 086 17.8
2019-Aug-21 02:36 085 17.8
2019-Aug-21 02:31 086 0 17.8
2019-Aug-21 02:27 086 1 17.8
2019-Aug-21 02:21 086 1 17.8
2019-Aug-21 02:16 085 1 17.8
2019-Aug-21 02:12 086 1 17.8
2019-Aug-21 02:06 086 1 17.8
2019-Aug-21 02:01 086 0 17.2
2019-Aug-21 01:57 086 0 17.2
2019-Aug-21 01:51 086 17.8
2019-Aug-21 01:46 086 17.8
2019-Aug-21 01:41 086 17.8
2019-Aug-21 01:36 086 17.8
2019-Aug-21 01:31 086 17.8
2019-Aug-21 01:26 087 17.8
2019-Aug-21 01:21 086 17.8
2019-Aug-21 01:16 088 17.8
2019-Aug-21 01:12 085 17.2
2019-Aug-21 01:06 086 17.2
2019-Aug-21 01:02 086 17.2
2019-Aug-21 00:56 086 17.2
2019-Aug-21 00:51 087 17.2
2019-Aug-21 00:47 087 0 17.2
2019-Aug-21 00:41 085 0 17.2
2019-Aug-21 00:37 086 0 17.2
2019-Aug-21 00:31 086 0 17.2
2019-Aug-21 00:26 086 0 17.2
2019-Aug-21 00:22 086 0 17.2
2019-Aug-21 00:16 088 0 17.2
2019-Aug-21 00:12 086 0 17.2
2019-Aug-21 00:07 086 0 17.2
2019-Aug-21 00:01 087 1 gusting 3 17.2
2019-Aug-20 23:56 087 0 gusting 3 17.2
2019-Aug-20 23:51 086 1 gusting 3 16.7
2019-Aug-20 23:46 085 1 gusting 3 16.7
2019-Aug-20 23:42 087 1 gusting 2 16.7
2019-Aug-20 23:36 085 1 gusting 2 16.7
2019-Aug-20 23:31 086 1 gusting 3 16.7
2019-Aug-20 23:26 086 2 gusting 3 16.7
2019-Aug-20 23:21 087 2 gusting 3 16.7
2019-Aug-20 23:16 086 2 gusting 3 16.7
2019-Aug-20 23:12 086 1 gusting 4 17.2
2019-Aug-20 23:06 086 2 gusting 4 17.2
2019-Aug-20 23:02 086 1 gusting 3 17.2
2019-Aug-20 22:57 084 2 gusting 3 16.7
2019-Aug-20 22:51 085 2 gusting 3 16.7
2019-Aug-20 22:47 086 16.7
2019-Aug-20 22:42 086 16.7
2019-Aug-20 22:36 086 17.2
2019-Aug-20 22:32 086 17.2
2019-Aug-20 22:26 086 0 gusting 3 17.2
2019-Aug-20 22:21 086 1 gusting 3 17.2
2019-Aug-20 22:16 086 2 gusting 2 17.2
2019-Aug-20 22:13 085 0 gusting 2 17.2
2019-Aug-20 22:06 086 0 gusting 2 17.2
2019-Aug-20 22:01 087 0 gusting 3 17.2
2019-Aug-20 21:56 089 2 gusting 3 17.2
2019-Aug-20 21:51 085 0 gusting 3 17.2
2019-Aug-20 21:46 090 1 gusting 3 17.2
2019-Aug-20 21:41 087 0 gusting 3 17.2
2019-Aug-20 21:36 086 1 gusting 3 17.2
2019-Aug-20 21:31 086 1 gusting 3 17.8
2019-Aug-20 21:26 086 1 gusting 3 17.8
2019-Aug-20 21:21 087 2 gusting 3 17.8
2019-Aug-20 21:16 086 1 gusting 3 17.8
2019-Aug-20 21:12 086 2 gusting 5 17.8
2019-Aug-20 21:06 091 1 gusting 5 17.8
2019-Aug-20 21:01 091 2 gusting 5 17.8
2019-Aug-20 20:56 070 2 gusting 7 18.3
2019-Aug-20 20:51 072 3 gusting 7 18.3
2019-Aug-20 20:46 056 4 gusting 9 18.3
2019-Aug-20 20:41 058 6 gusting 9 18.3
2019-Aug-20 20:36 067 5 gusting 10 18.3
2019-Aug-20 20:31 076 5 gusting 10 18.3
2019-Aug-20 20:26 056 5 gusting 8 18.3
2019-Aug-20 20:21 069 4 gusting 7 18.3
2019-Aug-20 20:16 053 4 gusting 8 18.3
2019-Aug-20 20:12 051 5 gusting 8 18.3
2019-Aug-20 20:06 068 6 gusting 8 18.3
2019-Aug-20 20:01 054 6 gusting 9 18.3
2019-Aug-20 19:56 065 5 gusting 9 18.3
2019-Aug-20 19:51 052 6 gusting 10 18.3
2019-Aug-20 19:46 062 8 gusting 10 18.9
2019-Aug-20 19:41 059 6 gusting 10 18.9
2019-Aug-20 19:36 066 7 gusting 10 18.9
2019-Aug-20 19:31 063 7 gusting 11 18.9
2019-Aug-20 19:26 049 8 gusting 12 18.9
2019-Aug-20 19:21 053 7 gusting 12 18.9
2019-Aug-20 19:16 078 6 gusting 10 18.9
2019-Aug-20 19:12 058 8 gusting 12 18.9
2019-Aug-20 19:06 058 6 gusting 12 18.9
2019-Aug-20 19:01 060 7 gusting 13 19.4
2019-Aug-20 18:56 063 6 gusting 13 19.4
2019-Aug-20 18:51 076 5 gusting 12 19.4
2019-Aug-20 18:46 063 7 gusting 12 19.4
2019-Aug-20 18:41 060 6 gusting 13 19.4
2019-Aug-20 18:36 073 11 gusting 13 19.4
2019-Aug-20 18:31 046 10 gusting 13 20.0
2019-Aug-20 18:26 070 7 gusting 13 20.0
2019-Aug-20 18:21 046 11 gusting 13 20.0
2019-Aug-20 18:16 068 6 gusting 13 20.0
2019-Aug-20 18:12 052 9 gusting 13 20.0
2019-Aug-20 18:06 051 12 gusting 15 20.0
2019-Aug-20 18:01 051 11 gusting 15 20.0
2019-Aug-20 17:56 060 8 gusting 13 20.0
2019-Aug-20 17:51 069 11 gusting 13 20.0
2019-Aug-20 17:46 051 11 gusting 13 20.6
2019-Aug-20 17:41 061 11 gusting 14 20.6
2019-Aug-20 17:36 062 11 gusting 14 20.6
2019-Aug-20 17:31 047 11 gusting 15 20.6
2019-Aug-20 17:26 051 11 gusting 15 20.6
2019-Aug-20 17:21 057 9 gusting 14 21.1
2019-Aug-20 17:16 054 8 gusting 13 21.1
2019-Aug-20 17:12 061 9 gusting 14 21.1
2019-Aug-20 17:06 059 11 gusting 14 21.1
2019-Aug-20 17:01 075 9 gusting 14 21.1
2019-Aug-20 16:56 066 8 gusting 14 21.1
2019-Aug-20 16:51 055 11 gusting 14 21.1
2019-Aug-20 16:46 043 11 gusting 16 21.1
2019-Aug-20 16:41 055 10 gusting 16 21.1
2019-Aug-20 16:36 030 13 gusting 15 21.1
2019-Aug-20 16:31 050 11 gusting 15 21.1
2019-Aug-20 16:26 065 12 gusting 17 21.1
2019-Aug-20 16:21 051 13 gusting 17 21.1
2019-Aug-20 16:16 038 11 gusting 17 21.1
2019-Aug-20 16:12 064 13 gusting 17 21.7
2019-Aug-20 16:06 046 12 gusting 16 21.7
2019-Aug-20 16:01 035 10 gusting 15 21.7
2019-Aug-20 15:56 041 11 gusting 16 21.7
2019-Aug-20 15:51 059 13 gusting 16 21.7
2019-Aug-20 15:46 049 10 gusting 16 21.7
2019-Aug-20 15:41 043 10 gusting 15 21.7
2019-Aug-20 15:36 066 10 gusting 15 21.7
2019-Aug-20 15:31 070 11 gusting 17 21.7
2019-Aug-20 15:26 044 12 gusting 17 21.7
2019-Aug-20 15:21 056 13 gusting 17 21.7
2019-Aug-20 15:16 048 12 gusting 15 22.2
2019-Aug-20 15:12 054 10 gusting 14 22.2
2019-Aug-20 15:06 025 9 gusting 14 22.2
2019-Aug-20 15:01 037 9 gusting 14 22.2
2019-Aug-20 14:56 020 9 gusting 13 22.2
2019-Aug-20 14:51 049 8 gusting 13 22.2
2019-Aug-20 14:46 068 8 gusting 12 22.2
2019-Aug-20 14:41 051 7 gusting 13 22.2
2019-Aug-20 14:37 037 11 gusting 14 22.2
2019-Aug-20 14:31 029 10 gusting 14 22.8
2019-Aug-20 14:26 044 8 gusting 13 22.8
2019-Aug-20 14:21 015 6 gusting 13 22.8
2019-Aug-20 14:16 013 8 gusting 13 22.8
2019-Aug-20 14:12 030 9 gusting 14 22.8
2019-Aug-20 14:06 027 8 gusting 14 22.8
2019-Aug-20 14:01 011 8 gusting 13 22.8
2019-Aug-20 13:56 016 8 gusting 13 23.3
2019-Aug-20 13:51 013 8 gusting 13 23.3
2019-Aug-20 13:46 052 8 gusting 13 22.8
2019-Aug-20 13:41 040 8 gusting 13 22.8
2019-Aug-20 13:36 359 7 gusting 13 23.3
2019-Aug-20 13:31 046 6 gusting 13 23.3
2019-Aug-20 13:21 036 6 gusting 10 22.8
2019-Aug-20 13:16 044 5 gusting 11 22.8
2019-Aug-20 13:12 051 8 gusting 11 22.8
2019-Aug-20 13:06 077 6 gusting 10 22.8
2019-Aug-20 13:01 059 9 gusting 11 22.8
2019-Aug-20 12:56 045 7 gusting 12 22.8
2019-Aug-20 12:51 070 8 gusting 13 22.8
2019-Aug-20 12:46 046 7 gusting 13 22.8
2019-Aug-20 12:41 070 5 gusting 12 22.8
2019-Aug-20 12:36 068 6 gusting 13 22.8
2019-Aug-20 12:31 056 9 gusting 13 22.8
2019-Aug-20 12:26 050 10 gusting 13 22.8
2019-Aug-20 12:22 053 6 gusting 13 22.8
2019-Aug-20 12:16 072 8 gusting 13 22.2
2019-Aug-20 12:12 041 4 gusting 12 21.7
2019-Aug-20 12:06 061 6 gusting 9 21.7
2019-Aug-20 12:01 044 6 gusting 9 21.1
2019-Aug-20 11:56 065 6 gusting 11 21.1
2019-Aug-20 11:51 048 8 gusting 11 21.7
2019-Aug-20 11:46 045 6 gusting 11 21.7
2019-Aug-20 11:41 021 5 gusting 11 22.2
2019-Aug-20 11:36 027 6 gusting 11 22.8
2019-Aug-20 11:31 018 8 gusting 12 22.8
2019-Aug-20 11:26 028 5 gusting 13 22.2
2019-Aug-20 11:22 046 6 gusting 13 21.7
2019-Aug-20 11:16 066 7 gusting 13 21.1
2019-Aug-20 11:12 007 8 gusting 13 21.1
2019-Aug-20 11:06 360 8 gusting 13 21.1
2019-Aug-20 11:01 041 8 gusting 13 21.7
2019-Aug-20 10:56 027 7 gusting 11 22.2
2019-Aug-20 10:51 063 5 gusting 10 22.2
2019-Aug-20 10:46 070 5 gusting 9 21.7
2019-Aug-20 10:41 068 5 gusting 10 21.7
2019-Aug-20 10:36 061 6 gusting 10 21.7
2019-Aug-20 10:31 066 7 gusting 10 22.2
2019-Aug-20 10:26 024 8 gusting 10 21.7
2019-Aug-20 10:21 085 5 gusting 8 22.2
2019-Aug-20 10:16 098 5 gusting 12 21.7
2019-Aug-20 10:12 048 6 gusting 12 21.1
2019-Aug-20 10:06 089 2 gusting 6 21.1
2019-Aug-20 10:01 111 0 gusting 6 21.7
2019-Aug-20 09:56 107 4 gusting 6 21.1
2019-Aug-20 09:51 111 2 gusting 9 21.1
2019-Aug-20 09:46 130 3 gusting 9 20.6
2019-Aug-20 09:41 086 0 gusting 5 20.6
2019-Aug-20 09:36 094 2 gusting 5 20.0
2019-Aug-20 09:31 043 2 gusting 4 19.4
2019-Aug-20 09:26 181 0 gusting 6 19.4
2019-Aug-20 09:21 202 3 gusting 6 19.4
2019-Aug-20 09:16 231 19.4
2019-Aug-20 09:12 231 1 gusting 3 18.9
2019-Aug-20 09:06 231 1 gusting 3 18.3
2019-Aug-20 09:01 232 1 gusting 3 18.3
2019-Aug-20 08:56 231 17.8
2019-Aug-20 08:51 231 1 gusting 2 17.8
2019-Aug-20 08:46 232 0 gusting 3 17.8
2019-Aug-20 08:41 231 1 gusting 3 17.8
2019-Aug-20 08:36 231 17.8
2019-Aug-20 08:31 229 17.8
2019-Aug-20 08:26 231 0 gusting 2 17.2
2019-Aug-20 08:21 232 0 gusting 3 17.2
2019-Aug-20 08:16 230 1 gusting 3 17.2
2019-Aug-20 08:12 233 17.2
2019-Aug-20 08:06 231 1 gusting 3 17.2
2019-Aug-20 08:01 232 1 gusting 2 17.2
2019-Aug-20 07:56 232 1 gusting 2 17.2
2019-Aug-20 07:51 234 1 gusting 2 17.2
2019-Aug-20 07:46 232 17.2
2019-Aug-20 07:41 232 16.7
2019-Aug-20 07:36 233 0 gusting 5 16.7
2019-Aug-20 07:31 233 1 gusting 5 17.2
2019-Aug-20 07:26 200 2 gusting 4 17.2
2019-Aug-20 07:21 264 0 gusting 4 17.2
2019-Aug-20 07:16 266 2 gusting 4 17.2
2019-Aug-20 07:12 269 1 gusting 3 17.2
2019-Aug-20 07:06 269 0 gusting 2 16.7
2019-Aug-20 07:01 269 0 gusting 2 16.7
2019-Aug-20 06:56 269 16.7
2019-Aug-20 06:51 269 1 gusting 3 16.7
2019-Aug-20 06:46 269 16.7
2019-Aug-20 06:41 270 16.7
2019-Aug-20 06:36 269 16.7
2019-Aug-20 06:31 270 1 gusting 2 16.7
2019-Aug-20 06:26 269 16.7
2019-Aug-20 06:21 360 0 16.1
2019-Aug-20 06:16 269 0 16.1
2019-Aug-20 06:12 272 0 16.7
2019-Aug-20 06:06 269 0 16.7
2019-Aug-20 06:01 269 1 16.1
2019-Aug-20 05:56 269 1 16.1
2019-Aug-20 05:51 271 1 16.1
2019-Aug-20 05:46 269 0 16.1
2019-Aug-20 05:41 270 1 16.1
2019-Aug-20 05:36 271 1 16.7
2019-Aug-20 05:31 270 1 16.7
2019-Aug-20 05:26 269 1 16.7
2019-Aug-20 05:21 271 0 16.7
2019-Aug-20 05:16 271 16.7
2019-Aug-20 05:11 004 16.7
2019-Aug-20 05:06 004 16.7
2019-Aug-20 05:01 002 16.7
2019-Aug-20 04:56 004 16.7
2019-Aug-20 04:51 004 0 16.7
2019-Aug-20 04:46 004 1 16.7
2019-Aug-20 04:41 041 1 16.7
2019-Aug-20 04:36 041 2 16.7
2019-Aug-20 04:31 041 3 16.7
2019-Aug-20 04:26 041 4 16.7
2019-Aug-20 04:21 039 4 16.7
2019-Aug-20 04:16 018 4 16.7
2019-Aug-20 04:12 360 3 16.7
2019-Aug-20 04:06 250 1 16.7
2019-Aug-20 04:01 249 1 16.7
2019-Aug-20 03:56 251 1 16.7
2019-Aug-20 03:51 250 1 16.7
2019-Aug-20 03:46 248 1 16.7
2019-Aug-20 03:41 245 0 16.7
2019-Aug-20 03:36 245 0 16.7
2019-Aug-20 03:31 245 0 16.7
2019-Aug-20 03:26 247 0 16.7
2019-Aug-20 03:21 246 1 16.7
2019-Aug-20 03:16 252 1 16.7
2019-Aug-20 03:11 248 1 16.7
2019-Aug-20 03:06 245 1 16.7
2019-Aug-20 03:01 250 1 16.7
2019-Aug-20 02:56 229 2 16.7
2019-Aug-20 02:51 224 2 16.7
2019-Aug-20 02:46 243 0 16.7
2019-Aug-20 02:41 234 0 16.7
2019-Aug-20 02:36 231 1 16.7
2019-Aug-20 02:31 233 1 16.7
2019-Aug-20 02:26 236 1 16.7
2019-Aug-20 02:21 240 1 16.7
2019-Aug-20 02:16 240 1 16.7
2019-Aug-20 02:12 240 1 16.7
2019-Aug-20 02:06 145 0 16.7
2019-Aug-20 02:01 146 0 16.7
2019-Aug-20 01:56 144 16.7
2019-Aug-20 01:51 146 16.7
2019-Aug-20 01:46 145 0 16.7
2019-Aug-20 01:41 146 0 16.7
2019-Aug-20 01:36 143 16.7
2019-Aug-20 01:31 145 16.7
2019-Aug-20 01:26 146 16.7
2019-Aug-20 01:21 145 0 16.7
2019-Aug-20 01:16 144 0 16.7
2019-Aug-20 01:12 146 1 16.7
2019-Aug-20 01:06 142 2 16.7
2019-Aug-20 01:01 145 1 16.7
2019-Aug-20 00:56 143 1 16.7
2019-Aug-20 00:51 143 1 16.7
2019-Aug-20 00:46 143 1 16.7
2019-Aug-20 00:41 143 1 17.2
2019-Aug-20 00:36 144 2 17.2
2019-Aug-20 00:31 144 2 17.2
2019-Aug-20 00:26 143 2 17.2
2019-Aug-20 00:21 143 1 gusting 4 17.2
2019-Aug-20 00:16 142 0 gusting 3 17.2
2019-Aug-20 00:12 143 0 gusting 3 17.2
2019-Aug-20 00:06 141 17.2
2019-Aug-20 00:01 142 0 gusting 2 17.2
2019-Aug-19 23:56 141 0 gusting 3 17.2
2019-Aug-19 23:51 142 1 gusting 3 17.2
2019-Aug-19 23:46 143 0 gusting 3 17.2
2019-Aug-19 23:41 141 1 gusting 3 17.2
2019-Aug-19 23:36 141 1 gusting 2 17.2
2019-Aug-19 23:31 096 17.2
2019-Aug-19 23:26 098 17.2
2019-Aug-19 23:21 097 17.2
2019-Aug-19 23:16 098 17.2
2019-Aug-19 23:12 099 17.2
2019-Aug-19 23:01 098 17.2
2019-Aug-19 22:56 098 17.2
2019-Aug-19 22:51 098 17.2
2019-Aug-19 22:46 096 17.2
2019-Aug-19 22:41 097 17.2
2019-Aug-19 22:36 097 17.2
2019-Aug-19 22:31 093 17.2
2019-Aug-19 22:26 098 17.2
2019-Aug-19 22:21 098 17.2
2019-Aug-19 22:16 097 17.2
2019-Aug-19 22:12 096 17.2
2019-Aug-19 22:06 099 17.2
2019-Aug-19 22:01 096 17.2
2019-Aug-19 21:56 096 17.2
2019-Aug-19 21:51 096 17.2
2019-Aug-19 21:46 098 17.2
2019-Aug-19 21:41 096 0 gusting 3 17.2
2019-Aug-19 21:36 097 2 gusting 4 17.2
2019-Aug-19 21:31 097 2 gusting 4 17.2
2019-Aug-19 21:26 096 1 gusting 4 17.2
2019-Aug-19 21:21 098 1 gusting 4 17.2
2019-Aug-19 21:16 099 2 gusting 7 17.2
2019-Aug-19 21:12 086 4 gusting 7 17.2
2019-Aug-19 21:06 087 4 gusting 7 17.8
2019-Aug-19 21:01 068 4 gusting 8 17.8
2019-Aug-19 20:56 100 6 gusting 8 17.8
2019-Aug-19 20:51 077 4 gusting 6 17.8
2019-Aug-19 20:46 077 4 gusting 6 17.8
2019-Aug-19 20:41 102 4 gusting 8 17.8
2019-Aug-19 20:36 098 4 gusting 9 17.8
2019-Aug-19 20:31 116 6 gusting 9 17.8
2019-Aug-19 20:26 110 5 gusting 9 17.8
2019-Aug-19 20:21 096 6 gusting 9 17.8
2019-Aug-19 20:16 082 4 gusting 9 17.8
2019-Aug-19 20:12 083 6 gusting 10 17.8
2019-Aug-19 20:06 069 6 gusting 10 17.8
2019-Aug-19 20:01 008 1 gusting 2 17.8
2019-Aug-19 19:56 007 17.8
2019-Aug-19 19:51 008 17.8
2019-Aug-19 19:46 011 17.8
2019-Aug-19 19:41 007 17.8
2019-Aug-19 19:36 007 17.8
2019-Aug-19 19:31 007 3 gusting 6 17.8
2019-Aug-19 19:26 008 2 gusting 6 17.8
2019-Aug-19 19:21 008 4 gusting 6 17.8
2019-Aug-19 19:16 027 3 gusting 7 17.8
2019-Aug-19 19:12 041 4 gusting 7 17.8
2019-Aug-19 19:06 045 4 gusting 5 17.8
2019-Aug-19 19:01 040 4 gusting 7 18.3
2019-Aug-19 18:56 031 4 gusting 9 18.3
2019-Aug-19 18:51 042 6 gusting 11 18.3
2019-Aug-19 18:46 050 7 gusting 13 18.9
2019-Aug-19 18:41 033 10 gusting 14 18.9
2019-Aug-19 18:36 047 8 gusting 14 19.4
2019-Aug-19 18:31 016 2 gusting 4 19.4
2019-Aug-19 18:26 019 1 gusting 5 20.0
2019-Aug-19 18:21 019 3 gusting 7 20.0
2019-Aug-19 18:16 020 4 gusting 7 20.0
2019-Aug-19 18:12 004 2 gusting 5 20.0
2019-Aug-19 18:06 013 1 gusting 5 20.0
2019-Aug-19 18:01 012 2 gusting 6 20.0
2019-Aug-19 17:56 011 3 gusting 6 20.0
2019-Aug-19 17:46 017 5 gusting 7 20.0
2019-Aug-19 17:41 360 2 gusting 7 20.0
2019-Aug-19 17:36 007 4 gusting 7 20.0
2019-Aug-19 17:31 025 3 gusting 5 20.0
2019-Aug-19 17:26 025 3 gusting 7 20.0
2019-Aug-19 17:21 024 3 gusting 7 20.0
2019-Aug-19 17:12 360 3 gusting 5 20.0
2019-Aug-19 17:06 020 3 gusting 6 20.0
2019-Aug-19 17:01 022 3 gusting 7 20.0
2019-Aug-19 16:56 025 4 gusting 7 20.0
2019-Aug-19 16:51 024 3 gusting 8 20.6
2019-Aug-19 16:46 018 4 gusting 8 20.6
2019-Aug-19 16:41 010 5 gusting 7 20.6
2019-Aug-19 16:36 002 4 gusting 6 20.6
2019-Aug-19 16:31 008 2 gusting 6 20.6
2019-Aug-19 16:26 030 2 gusting 6 20.6
2019-Aug-19 16:21 015 5 gusting 7 20.6
2019-Aug-19 16:16 025 5 gusting 7 20.6
2019-Aug-19 16:12 022 6 gusting 7 20.6
2019-Aug-19 16:07 029 3 gusting 8 20.6
2019-Aug-19 16:02 011 6 gusting 8 20.6
2019-Aug-19 15:56 004 4 gusting 8 20.6
2019-Aug-19 15:51 018 5 gusting 8 20.6
2019-Aug-19 15:46 360 3 gusting 7 20.0
2019-Aug-19 15:41 034 4 gusting 7 20.0
2019-Aug-19 15:36 035 4 gusting 6 20.0
2019-Aug-19 15:31 037 5 gusting 6 20.0
2019-Aug-19 15:26 023 5 20.0
2019-Aug-19 15:21 026 4 20.0
2019-Aug-19 15:16 359 3 20.0
2019-Aug-19 15:12 032 4 20.0
2019-Aug-19 15:06 053 6 20.0
2019-Aug-19 15:01 044 6 20.0